Regional Weather Roundup
Issued by NWS

Home | Current Version | Previous Version | Text Only | Print | Product List | Glossary Off
Versions: 1 2 3 4 5 6 7 8 9 10 11 12 13 14 15 16 17 18 19 20 21 22 23 24 25 26 27 28 29 30 31 32 33 34 35 36 37 38 39 40 41 42 43 44 45 46 47 48 49 50

000
ASUS45 KCYS 290810
RWRWY

WYOMING REGIONAL WEATHER ROUNDUP
NATIONAL WEATHER SERVICE CHEYENNE WY
200 AM MDT TUE JUL 29 2014

NOTE:  "FAIR" INDICATES FEW OR NO CLOUDS BELOW 12,000 FEET
WITH NO SIGNIFICANT WEATHER AND/OR OBSTRUCTIONS TO VISIBILITY.

WYZ001-290900-
YELLOWSTONE NATIONAL PARK

CITY           SKY/WX    TMP DP  RH WIND       PRES   REMARKS
LK YELLOWSTONE   N/A     54  48  80 CALM      30.51S
W YELLOWSTONE  NOT AVBL

$$
WYZ002>013-054>058-071-098>099-290900-
NORTHERN WYOMING

CITY           SKY/WX    TMP DP  RH WIND       PRES   REMARKS
JACKSON        CLOUDY    66  43  42 E3        30.35S
CODY           NOT AVBL
GREYBULL       CLOUDY    77  48  35 SE5       30.17S
WORLAND        MOCLDY    73  52  47 CALM      30.21S
SHERIDAN       CLOUDY    69  50  50 SW5       30.22F
BUFFALO        CLOUDY    69  50  50 S6        30.31S
GILLETTE       CLOUDY    69  51  52 S9        30.25F
HULETT         FAIR      61  52  72 MISG      30.28
NEWCASTLE      FAIR      64  46  52 CALM      30.26

$$
WYZ014>020-022>026-101>103-290900-
CENTRAL WYOMING

CITY           SKY/WX    TMP DP  RH WIND       PRES   REMARKS
BIG PINEY      CLOUDY    68  42  38 NE15      30.35S
PINEDALE       PTSUNNY   61  41  48 W5        30.36S
DUBOIS         PTSUNNY   63  37  39 SE9       30.37F
LANDER         MOCLDY    72  42  34 NW7       30.28R
RIVERTON       MOCLDY    72  44  36 NE8       30.27R
CASPER         PTCLDY    65  51  60 E3        30.26R
DOUGLAS        PTCLDY    65  52  62 E9        30.25F

$$
WYZ021-027>030-104>119-290900-
SOUTHERN WYOMING

CITY           SKY/WX    TMP DP  RH WIND       PRES   REMARKS
EVANSTON       CLOUDY    57  54  89 CALM      30.38S
FORT BRIDGER   CLOUDY    64  51  64 SW6       30.40R
ROCK SPRINGS   CLOUDY    67  46  47 SW12      30.33S
DIXON          FAIR      64  47  55 CALM      30.38S
RAWLINS        MOCLDY    67  45  45 W7G18     30.33F
SARATOGA       FAIR      64  45  48 S7        30.37S
LARAMIE        MOCLDY    58  51  78 SE7       30.37F
CHEYENNE       CLEAR     58  52  80 SW7       30.31F
TORRINGTON     PTCLDY    62  56  80 E9        30.21S
PINE BLUFFS    FAIR      59  55  88 CALM      30.27F

$$



USA.gov is the U.S. government's official web portal to all federal, state and local government web resources and services.